WA6MVG's Weather Station-Located NW of Lake Tapps

Station Historical Data
 
Daily Summary for August 17, 2017 Units:  English    Metric   Both
« Previous Day
Next Day »
Daily Weekly Monthly Yearly Custom
  Current: High: Low: Average:
Temperature: 60.4 °F 65.7 °F 58.6 °F 61.2 °F
Dew Point: 55.9 °F 56.6 °F 53.5 °F 54.9 °F
Humidity: 85 % 85 % 71 % 80 %
Wind Speed: 0.0 mph 2.3 mph 0.0 mph 0.3 mph
Wind Gust: 0.0 mph 2.3 mph - -
Wind:Calm - - NNE
Pressure: 30.17 in 30.17 in 30.11 in -
Precipitation: 0.08 in      
Historical Graphs
 
 
Tabular Data for August 17, 2017
Time Temperature Dew Point Pressure Wind Wind Speed Wind Gust Humidity Rainfall Rate (Hourly)
00:02 65.7 °F 56.4 °F 30.11 in Calm     72 % 0.00 in
00:07 65.5 °F 55.8 °F 30.11 in Calm     71 % 0.00 in
00:12 65.1 °F 56.2 °F 30.11 in ENE 1.4 mph 1.4 mph 73 % 0.00 in
00:13 65.1 °F 56.2 °F 30.11 in ENE 2.3 mph 2.3 mph 73 % 0.00 in
00:18 65.1 °F 55.9 °F 30.11 in Calm     72 % 0.00 in
00:23 65.1 °F 56.6 °F 30.11 in ENE 2.0 mph 2.0 mph 74 % 0.00 in
00:28 64.9 °F 55.7 °F 30.11 in Calm     72 % 0.00 in
00:33 64.9 °F 55.7 °F 30.11 in Calm     72 % 0.00 in
00:38 64.9 °F 55.7 °F 30.11 in Calm     72 % 0.00 in
00:43 64.9 °F 56.1 °F 30.11 in Calm     73 % 0.00 in
00:48 64.8 °F 55.9 °F 30.11 in NNE 1.2 mph 1.2 mph 73 % 0.00 in
00:53 64.8 °F 55.5 °F 30.11 in Calm     72 % 0.00 in
00:58 64.8 °F 55.9 °F 30.11 in Calm     73 % 0.00 in
01:03 64.6 °F 55.3 °F 30.11 in Calm     72 % 0.00 in
01:08 64.6 °F 55.7 °F 30.11 in Calm     73 % 0.00 in
01:13 64.6 °F 55.7 °F 30.11 in NNE 1.4 mph   73 % 0.00 in
01:18 64.8 °F 56.3 °F 30.11 in NNE 1.2 mph   74 % 0.00 in
01:23 64.4 °F 55.9 °F 30.11 in Calm     74 % 0.00 in
01:29 64.4 °F 55.9 °F 30.11 in Calm     74 % 0.00 in
01:34 64.0 °F 56.0 °F 30.11 in NNE 1.6 mph   75 % 0.00 in
01:39 63.7 °F 55.6 °F 30.11 in Calm     75 % 0.00 in
01:44 63.5 °F 55.8 °F 30.11 in Calm     76 % 0.00 in
01:49 63.1 °F 55.8 °F 30.11 in Calm     77 % 0.00 in
01:54 63.0 °F 56.0 °F 30.11 in NNE 1.2 mph 1.2 mph 78 % 0.00 in
01:59 62.8 °F 56.2 °F 30.11 in Calm     79 % 0.00 in
02:04 63.0 °F 56.3 °F 30.11 in Calm     79 % 0.00 in
02:09 62.8 °F 55.8 °F 30.11 in Calm     78 % 0.00 in
02:14 62.4 °F 55.5 °F 30.11 in Calm     78 % 0.00 in
02:19 62.4 °F 55.5 °F 30.11 in NNE 1.2 mph 1.2 mph 78 % 0.00 in
02:24 62.8 °F 55.8 °F 30.11 in Calm     78 % 0.00 in
02:29 62.6 °F 55.6 °F 30.11 in Calm     78 % 0.00 in
02:34 62.6 °F 55.3 °F 30.11 in Calm     77 % 0.00 in
02:39 62.6 °F 55.6 °F 30.11 in Calm     78 % 0.00 in
02:44 62.2 °F 54.9 °F 30.11 in NNE 1.2 mph   77 % 0.00 in
02:49 62.1 °F 55.1 °F 30.11 in Calm     78 % 0.00 in
02:54 62.1 °F 54.8 °F 30.11 in NNE 1.6 mph 1.6 mph 77 % 0.00 in
02:59 61.9 °F 54.9 °F 30.11 in NNE 1.2 mph 1.2 mph 78 % 0.00 in
03:05 61.7 °F 54.4 °F 30.11 in NNE 1.2 mph 1.2 mph 77 % 0.00 in
03:10 61.5 °F 54.6 °F 30.11 in Calm     78 % 0.00 in
03:15 61.3 °F 54.4 °F 30.11 in Calm   1.0 mph 78 % 0.00 in
03:20 61.2 °F 54.2 °F 30.14 in Calm     78 % 0.00 in
03:25 61.3 °F 54.8 °F 30.14 in NNE 1.6 mph   79 % 0.00 in
03:30 61.5 °F 54.9 °F 30.14 in Calm     79 % 0.00 in
03:35 61.2 °F 54.6 °F 30.11 in Calm     79 % 0.00 in
03:40 60.8 °F 54.6 °F 30.11 in NNE 1.6 mph   80 % 0.00 in
03:45 60.8 °F 54.9 °F 30.11 in Calm     81 % 0.00 in
03:50 60.8 °F 54.6 °F 30.11 in Calm     80 % 0.00 in
03:55 60.8 °F 54.6 °F 30.11 in Calm     80 % 0.00 in
04:00 60.6 °F 54.8 °F 30.11 in Calm     81 % 0.04 in
04:05 60.4 °F 55.3 °F 30.11 in NNE 1.2 mph   83 % 0.04 in
04:10 60.1 °F 54.6 °F 30.11 in Calm     82 % 0.04 in
04:15 60.1 °F 54.6 °F 30.14 in Calm     82 % 0.04 in
04:20 60.3 °F 54.4 °F 30.14 in Calm     81 % 0.04 in
04:25 60.3 °F 54.4 °F 30.14 in Calm     81 % 0.04 in
04:30 59.9 °F 54.1 °F 30.11 in NNE 1.2 mph 1.2 mph 81 % 0.08 in
04:35 59.9 °F 54.4 °F 30.11 in NNE 1.2 mph   82 % 0.08 in
04:40 59.9 °F 54.7 °F 30.11 in Calm     83 % 0.08 in
04:45 59.7 °F 54.9 °F 30.11 in Calm     84 % 0.08 in
04:50 59.7 °F 54.5 °F 30.11 in Calm     83 % 0.08 in
04:56 59.7 °F 54.9 °F 30.11 in Calm     84 % 0.08 in
05:01 59.7 °F 54.9 °F 30.11 in NNE 1.2 mph   84 % 0.04 in
05:06 59.5 °F 54.4 °F 30.11 in Calm     83 % 0.04 in
05:11 59.4 °F 54.2 °F 30.11 in Calm     83 % 0.04 in
05:12 59.4 °F 54.2 °F 30.11 in Calm     83 % 0.04 in
05:17 59.2 °F 54.3 °F 30.11 in Calm     84 % 0.04 in
05:22 59.2 °F 54.3 °F 30.11 in Calm     84 % 0.04 in
05:27 59.2 °F 54.3 °F 30.11 in Calm     84 % 0.04 in
05:32 59.2 °F 54.3 °F 30.11 in Calm     84 % 0.00 in
05:37 59.2 °F 54.3 °F 30.11 in Calm     84 % 0.00 in
05:42 59.2 °F 54.3 °F 30.11 in Calm     84 % 0.00 in
05:48 59.2 °F 54.0 °F 30.14 in Calm     83 % 0.00 in
05:53 59.0 °F 54.2 °F 30.14 in Calm     84 % 0.00 in
05:58 58.8 °F 54.0 °F 30.14 in Calm     84 % 0.00 in
06:03 58.8 °F 54.0 °F 30.14 in Calm     84 % 0.00 in
06:08 58.8 °F 54.0 °F 30.14 in Calm     84 % 0.00 in
06:13 58.6 °F 53.5 °F 30.14 in Calm     83 % 0.00 in
06:18 58.6 °F 53.5 °F 30.14 in Calm     83 % 0.00 in
06:23 58.6 °F 53.5 °F 30.14 in Calm     83 % 0.00 in
06:28 58.6 °F 53.8 °F 30.14 in Calm     84 % 0.00 in
06:33 58.6 °F 53.8 °F 30.14 in Calm     84 % 0.00 in
06:38 58.6 °F 53.8 °F 30.14 in Calm     84 % 0.00 in
06:43 58.6 °F 53.8 °F 30.14 in Calm     84 % 0.00 in
06:48 58.6 °F 53.8 °F 30.14 in Calm     84 % 0.00 in
06:53 58.8 °F 54.0 °F 30.14 in Calm     84 % 0.00 in
06:58 59.0 °F 54.2 °F 30.14 in Calm     84 % 0.00 in
07:03 59.0 °F 54.2 °F 30.14 in Calm     84 % 0.00 in
07:08 59.0 °F 54.2 °F 30.14 in Calm     84 % 0.00 in
07:13 59.2 °F 54.3 °F 30.14 in Calm     84 % 0.00 in
07:19 59.0 °F 53.8 °F 30.14 in Calm     83 % 0.00 in
07:24 59.2 °F 54.3 °F 30.14 in Calm     84 % 0.00 in
07:29 59.2 °F 54.3 °F 30.14 in Calm     84 % 0.00 in
07:34 59.2 °F 54.3 °F 30.17 in Calm     84 % 0.00 in
07:39 59.4 °F 54.5 °F 30.17 in Calm     84 % 0.00 in
07:44 59.4 °F 54.5 °F 30.17 in Calm     84 % 0.00 in
07:49 59.5 °F 55.0 °F 30.14 in Calm     85 % 0.00 in
07:54 59.7 °F 55.2 °F 30.14 in Calm     85 % 0.00 in
07:59 59.7 °F 55.2 °F 30.14 in Calm     85 % 0.00 in
08:04 59.9 °F 55.4 °F 30.17 in Calm     85 % 0.00 in
08:09 60.1 °F 55.6 °F 30.17 in Calm     85 % 0.00 in
08:14 60.3 °F 55.7 °F 30.17 in Calm     85 % 0.00 in
08:19 60.4 °F 55.9 °F 30.17 in Calm     85 % 0.00 in
Compliments of Weather Underground - 1 mb